Torna al catalogo

DELTA 1 DEB

AttivoPO
NORAD 21296·DEBRIS·🇺🇸 United States

Lanciato Jun 12, 1975 da Vandenberg Space Force Base

Loading…

Prossimi Passaggi (prossime 24 ore)

TLE

AggiornatoSource: Space-Track

Epoca: Sep 14, 2026, 11:17 UTC

1 21296U 75052AH  26257.47070258  .00000209  00000-0  61077-3 0  9999
2 21296  99.5824  65.8244 0236706  57.9778 325.3563 13.10737301687997

Traccia DELTA 1 DEB in tempo reale con AllMySat

Download on the App Store